SES-6

Last updated on Sun Jun 21 2026 00:03:05 GMT+0000 (Coordinated Universal Time)

1 39172U 13026A 26171.38401044 -.00000266 00000+0 00000+0 0 9998 2 39172 0.0186 337.8981 0002555 114.3836 274.0592 1.00272290 47756
UTC large
Height (km)
Speed (km/s)
/
Latitude / Longitude
Inclination (degrees)
Orbital Period (minutes)
Azimuth
Elevation
Range (km)
Doppler Factor

Next 0 passes for location: London (51.5072 / 0.1276)

No passes found over London.
SES-6